Starlink 32809

operational
NORAD ID: 62849 Int'l Des: 2025-019 Owner: SPXS Country: US Constellation: starlink
LEOCIRCULAR

Starlink 32809について

説明を読み込み中...

リアルタイム位置

3D地球を読み込み中...

次回通過

高度履歴

Altitude vs Time

uPlot chart will show altitude changes over time

軌道要素

1 62849U 25019W 25303.17302528 .00033286 00000-0 12126-2 0 9993
2 62849 43.0089 105.7665 0002251 267.9199 92.1395 15.27608069 42298
Epoch: Oct 30, 2025 • Age: 19 hours

現在のステータス

高度 486.4 km
速度 7.62 km/s
衛星直下点 -19.96°S, 56.28°E
打ち上げ日 Jan 27, 2025
運用期間 0.7 years
タイプ internet

技術仕様

分類 Payload
質量 730.00 kg
乾燥質量 700.00 kg
総質量 730.00 kg
長さ 0.30 m
直径 4.10 m
スパン 29.00 m
形状 Box + pan
製造者 SPXS
バスタイプ Starlink V2M
フェーズステータス In Orbit
所有者/国 SPXS/US

大規模コンステレーション

Loading constellations...